Location: Arcones
(41.1182°N, 3.7238°W)
Time: 16:58:15
(UTC+00:00)

COSMO-SKYMED 1 - Pass Details

Date: 11 December 2025
Orbit: 578 x 580 km, 97.9° (Epoch: 15 January)

Event Time Altitude Azimuth Distance (km) Brightness Sun altitude
Exits shadow 19:28:19 26° 311° (NW) 1,172 4.3 -29.6°
Maximum altitude 19:29:06 27° 291° (WNW) 1,118 4.3 -29.8°
Drops below altitude 10° 19:32:35 10° 233° (SW) 1,888 5.7 -30.4°
Sets 19:34:57 0° 221° (SW) 2,782 6.5 -30.9°
